EW5998 Weather Reports


time (UTC)temp
C
wind
direction
speed
KPH
gust
KPH
rain 1hr
cm
rain 24hr
cm
rain mn
cm
humidity
%
barometer
mb
20260510085240 7 248 3.2 14.5 0.00 0.36 0.03 85 1006.8
20260510082239 7 193 4.8 12.9 0.03 0.36 0.03 90 1006.6
20260510075240 8 208 1.6 8.0 0.03 0.36 0.03 92 1006.4
20260510072243 8 186 3.2 8.0 0.00 0.33 0.00 93 1006.2
20260510065239 8 200 3.2 9.7 0.00 0.33 0.00 93 1005.7
20260510062235 8 199 3.2 8.0 0.00 0.33 0.00 92 1005.6
20260510055235 8 194 3.2 12.9 0.00 0.33 0.00 91 1005.6
20260510052236 8 178 4.8 9.7 0.00 0.33 0.00 92 1005.2
20260510045236 8 177 3.2 16.1 0.00 0.33 0.00 92 1005.1
20260510042233 9 190 3.2 12.9 0.00 0.33 0.00 91 1004.6
20260510040617 10 212 3.2 12.9 0.00 0.33 0.33 90 1004.0
20260510032231 10 189 6.4 17.7 0.00 0.33 0.33 89 1003.4
20260510025236 10 214 6.4 16.1 0.00 0.33 0.33 89 1003.6
20260510022229 11 197 3.2 16.1 0.33 0.33 0.33 89 1003.2
20260510020624 12 160 6.4 20.9 0.33 0.33 0.33 86 1003.3
20260510012229 13 201 6.4 17.7 0.00 0.00 0.00 76 1002.5
20260510005229 13 160 8.0 16.1 0.00 0.00 0.00 75 1002.2
20260510002225 13 155 4.8 16.1 0.00 0.00 0.00 73 1002.3
20260509235225 14 146 6.4 14.5 0.00 0.00 0.00 71 1002.4
20260509232223 14 158 4.8 11.3 0.00 0.00 0.00 70 1003.2
20260509225221 15 139 6.4 16.1 0.00 0.00 0.00 67 1003.4
20260509222221 15 165 6.4 16.1 0.00 0.00 0.00 62 1003.5
20260509215221 16 193 9.7 19.3 0.00 0.00 0.00 58 1003.3
20260509212222 16 168 9.7 19.3 0.00 0.00 0.00 54 1003.2
20260509205219 16 154 9.7 24.1 0.00 0.00 0.00 52 1003.5
20260509202219 17 220 8.0 24.1 0.00 0.00 0.00 51 1003.6
20260509195218 17 222 11.3 27.4 0.00 0.00 0.00 52 1004.3
20260509192219 16 179 12.9 25.7 0.00 0.00 0.00 52 1004.4
20260509185217 17 162 11.3 25.7 0.00 0.00 0.00 55 1004.6
20260509182217 17 174 11.3 25.7 0.00 0.00 0.00 48 1004.9
20260509175217 16 140 9.7 27.4 0.00 0.00 0.00 48 1005.4
20260509172220 16 158 8.0 25.7 0.00 0.00 0.00 50 1005.6
20260509170611 16 168 8.0 20.9 0.00 0.00 0.00 43 1006.0
20260509162217 16 141 9.7 19.3 0.00 0.00 0.00 44 1006.6
20260509155217 15 137 8.0 20.9 0.00 0.00 0.00 46 1007.0
20260509153608 15 137 9.7 20.9 0.00 0.00 0.00 47 1007.5
20260509145216 15 169 8.0 16.1 0.00 0.00 0.00 49 1007.8
20260509142214 13 171 6.4 16.1 0.00 0.00 0.00 52 1008.1
20260509135214 12 148 8.0 17.7 0.00 0.00 0.00 53 1008.2
20260509132214 11 147 9.7 17.7 0.00 0.00 0.00 59 1008.4
20260509130634 10 134 4.8 9.7 0.00 0.00 0.00 63 1008.6
20260509122214 8 137 3.2 6.4 0.00 0.00 0.00 72 1008.8
20260509115214 6 131 0.0 1.6 0.00 0.00 0.00 76 1009.0
20260509112214 6 153 0.0 1.6 0.00 0.00 0.00 78 1008.9
20260509110555 4 132 0.0 1.6 0.00 0.00 0.00 82 1008.8
20260509102212 2 152 0.0 0.0 0.00 0.00 0.00 87 1008.6
20260509095212 1 151 0.0 0.0 0.00 0.00 0.00 87 1008.6
20260509092211 1 183 0.0 0.0 0.00 0.00 0.00 86 1008.7